Philip, SD

6:51 PM MST on December 15, 2017 (GMT -0700)
Philip

Weather History for KPHP - January, 2015

Change the Weather History Date:

Wednesday, January 28, 2015

  Actual Average Record
Temperature  
Mean Temperature 47 °F 23 °F  
Max Temperature 60 °F 36 °F 61 °F (1989)
Min Temperature 34 °F 10 °F -29 °F (1972)
Degree Days  
Heating Degree Days 18 42  
Month to date heating degree days 1093 1205  
Since 1 July heating degree days 3939 4140  
Cooling Degree Days 0 0  
Month to date cooling degree days 0 0  
Year to date cooling degree days 0 0  
Moisture  
Dew Point 28 °F    
Average Humidity 52    
Maximum Humidity 76    
Minimum Humidity 27    
Precipitation  
Precipitation 0.00 in 0.01 in 0.14 in (2003)
Month to date precipitation 0.01 0.28  
Year to date precipitation 0.01 0.28  
Sea Level Pressure  
Sea Level Pressure 29.98 in    
Wind  
Wind Speed 20 mph (NW)    
Max Wind Speed 38 mph    
Max Gust Speed 47 mph    
Visibility 10 miles    
Events      
T = Trace of Precipitation, MM = Missing Value Source: NWS Daily Summary

Daily Weather History Graph

Daily Weather History Graph

Search for Another Location

Airport or City:

Trip Planner

Search our weather history database for the weather conditions in past years. The results will help you decide how hot, cold, wet, or windy it might be!

Date:

Astronomy

Jan. 28, 2015 Rise Set
Actual Time 7:08 AM MST 4:50 PM MST
Civil Twilight 6:37 AM MST 5:21 PM MST
Nautical Twilight 6:02 AM MST 5:56 PM MST
Astronomical Twilight 5:28 AM MST 6:30 PM MST
Moon 11:57 AM MST (1/28) 1:40 AM MST (1/28)
Length of Visible Light 10h 44m
Length of Day
9h 42m
Waxing Gibbous, 67% of the Moon is Illuminated
Jan 28
Waxing Gibbous
Feb 3
Full
Feb 11
Last Quarter
Feb 18
New
Feb 25
First Quarter

Hourly Weather History & Observations

Time (MST) Temp. Windchill Dew Point Humidity Pressure Visibility Wind Dir Wind Speed Gust Speed Precip Events Conditions
12:55 AM 45.0 °F 39.7 °F 30.0 °F 56% 29.72 in 10.0 mi WNW 10.4 mph - N/A   Clear
1:55 AM 42.1 °F 35.7 °F 28.9 °F 60% 29.72 in 10.0 mi West 11.5 mph - N/A   Clear
2:55 AM 39.9 °F 33.4 °F 28.9 °F 65% 29.72 in 10.0 mi West 10.4 mph - N/A   Clear
3:55 AM 37.0 °F 29.8 °F 28.0 °F 70% 29.72 in 10.0 mi WNW 10.4 mph - N/A   Clear
4:55 AM 37.0 °F 28.9 °F 28.0 °F 70% 29.75 in 10.0 mi West 12.7 mph - N/A   Clear
5:55 AM 35.1 °F 27.9 °F 28.0 °F 76% 29.78 in 10.0 mi West 9.2 mph - N/A   Clear
6:55 AM 36.0 °F 27.5 °F 28.9 °F 76% 29.79 in 10.0 mi West 12.7 mph - N/A   Clear
7:55 AM 39.9 °F 33.4 °F 30.0 °F 68% 29.80 in 10.0 mi WSW 10.4 mph - N/A   Clear
8:55 AM 50.0 °F - 32.0 °F 50% 29.80 in 10.0 mi West 6.9 mph - N/A   Clear
9:55 AM 54.0 °F - 30.9 °F 41% 29.81 in 10.0 mi NW 21.9 mph 28.8 mph N/A   Clear
10:55 AM 57.0 °F - 28.9 °F 34% 29.82 in 10.0 mi NW 21.9 mph 33.4 mph N/A   Partly Cloudy
11:55 AM 60.1 °F - 27.0 °F 28% 29.81 in 10.0 mi NW 26.5 mph 44.9 mph N/A   Partly Cloudy
12:55 PM 55.9 °F - 27.0 °F 33% 29.82 in 10.0 mi WNW 21.9 mph 34.5 mph N/A   Mostly Cloudy
1:55 PM 57.0 °F - 28.0 °F 33% 29.84 in 10.0 mi NW 20.7 mph 29.9 mph N/A   Overcast
2:55 PM 55.9 °F - 27.0 °F 33% 29.88 in 10.0 mi NNW 28.8 mph 43.7 mph N/A   Partly Cloudy
3:55 PM 51.1 °F - 30.0 °F 44% 29.95 in 10.0 mi NNW 29.9 mph 36.8 mph N/A   Overcast
4:55 PM 45.0 °F 35.4 °F 32.0 °F 60% 30.04 in 10.0 mi NNW 28.8 mph 38.0 mph N/A   Partly Cloudy
5:25 PM 41.0 °F 30.0 °F 30.9 °F 67% 30.06 in 10.0 mi North 28.8 mph 35.7 mph N/A   Mostly Cloudy
5:55 PM 37.9 °F 25.5 °F 30.0 °F 73% 30.14 in 10.0 mi NNW 31.1 mph 40.3 mph N/A   Overcast
6:55 PM 37.0 °F 24.3 °F 30.0 °F 76% 30.20 in 10.0 mi NNW 31.1 mph 40.3 mph N/A   Overcast
7:55 PM 37.9 °F 25.5 °F 28.9 °F 70% 30.24 in 10.0 mi NNW 31.1 mph 40.3 mph N/A   Overcast
8:55 PM 37.0 °F 24.7 °F 27.0 °F 67% 30.25 in 10.0 mi NNW 28.8 mph 39.1 mph N/A   Overcast
9:55 PM 37.0 °F 27.0 °F 27.0 °F 67% 30.28 in 10.0 mi NNW 18.4 mph 26.5 mph N/A   Overcast
10:12 PM 37.0 °F 26.2 °F 27.0 °F 67% 30.26 in 10.0 mi NNW 21.9 mph 29.9 mph N/A   Overcast
10:35 PM 37.9 °F 26.6 °F 26.1 °F 62% 30.27 in 10.0 mi NNW 25.3 mph 34.5 mph N/A   Overcast
10:52 PM 37.4 °F 26.4 °F 24.8 °F 60% 30.28 in 10.0 mi NW 23.0 mph 31.1 mph N/A   Overcast
10:55 PM 37.0 °F 26.4 °F 25.0 °F 62% 30.30 in 10.0 mi NW 20.7 mph - N/A   Overcast
11:55 PM 36.0 °F 25.0 °F 25.0 °F 64% 30.34 in 10.0 mi NNW 20.7 mph 27.6 mph N/A   Overcast